Time,TemperatureF,DewpointF,PressureIn,WindDirection,WindDirectionDegrees,WindSpeedMPH,WindSpeedGustMPH,Humidity,HourlyPrecipIn,Conditions,Clouds,dailyrainin,SoftwareType,DateUTC
2013-07-21 00:01:00,69.8,64.0,29.92,North,1,0.0,0.0,82,0.00,,---,0.00,VWS V14.01,2013-07-21 05:01:00,
2013-07-21 00:06:00,69.7,64.2,29.92,North,1,0.0,0.0,83,0.00,,---,0.00,VWS V14.01,2013-07-21 05:06:00,
2013-07-21 00:11:00,69.7,64.2,29.92,North,1,0.0,0.0,83,0.00,,---,0.00,VWS V14.01,2013-07-21 05:11:00,
2013-07-21 00:16:00,69.6,64.1,29.92,North,1,0.0,0.0,83,0.00,,---,0.00,VWS V14.01,2013-07-21 05:16:00,
2013-07-21 00:21:00,69.6,64.1,29.92,North,1,0.0,0.0,83,0.00,,---,0.00,VWS V14.01,2013-07-21 05:21:00,
2013-07-21 00:26:00,69.6,64.1,29.92,North,1,0.0,0.0,83,0.00,,---,0.00,VWS V14.01,2013-07-21 05:26:00,
2013-07-21 00:31:00,69.5,64.0,29.93,North,1,0.0,0.0,83,0.00,,---,0.00,VWS V14.01,2013-07-21 05:31:00,
2013-07-21 00:36:00,69.5,64.0,29.93,North,1,0.0,0.0,83,0.00,,---,0.00,VWS V14.01,2013-07-21 05:36:00,
2013-07-21 00:41:00,69.4,63.9,29.92,North,1,0.0,0.0,83,0.00,,---,0.00,VWS V14.01,2013-07-21 05:41:00,
2013-07-21 00:46:00,69.3,63.8,29.92,North,1,0.0,0.0,83,0.00,,---,0.00,VWS V14.01,2013-07-21 05:46:00,
2013-07-21 00:51:00,69.3,63.8,29.92,North,1,0.0,0.0,83,0.00,,---,0.00,VWS V14.01,2013-07-21 05:51:00,
2013-07-21 00:56:00,69.3,63.8,29.92,North,1,0.0,0.0,83,0.00,,---,0.00,VWS V14.01,2013-07-21 05:56:00,
2013-07-21 01:01:00,69.2,63.7,29.91,North,1,0.0,0.0,83,0.00,,---,0.00,VWS V14.01,2013-07-21 06:01:00,
2013-07-21 01:06:00,68.9,63.5,29.91,North,1,0.0,0.0,83,0.00,,---,0.00,VWS V14.01,2013-07-21 06:06:00,
2013-07-21 01:11:00,68.8,63.7,29.90,North,1,0.0,0.0,84,0.00,,---,0.00,VWS V14.01,2013-07-21 06:11:00,
2013-07-21 01:16:00,68.6,63.5,29.91,North,1,0.0,0.0,84,0.00,,---,0.00,VWS V14.01,2013-07-21 06:16:00,
2013-07-21 01:21:00,68.4,63.3,29.91,North,1,0.0,0.0,84,0.00,,---,0.00,VWS V14.01,2013-07-21 06:21:00,
2013-07-21 01:26:00,68.4,63.6,29.91,North,1,0.0,0.0,85,0.00,,---,0.00,VWS V14.01,2013-07-21 06:26:00,
2013-07-21 01:31:00,68.3,63.5,29.91,North,1,0.0,0.0,85,0.00,,---,0.00,VWS V14.01,2013-07-21 06:31:00,
2013-07-21 01:36:00,68.3,63.5,29.91,North,1,0.0,0.0,85,0.00,,---,0.00,VWS V14.01,2013-07-21 06:36:00,
2013-07-21 01:41:00,68.2,63.4,29.91,North,1,0.0,0.0,85,0.00,,---,0.00,VWS V14.01,2013-07-21 06:41:00,
2013-07-21 01:46:00,68.2,63.4,29.90,North,1,0.0,0.0,85,0.00,,---,0.00,VWS V14.01,2013-07-21 06:46:00,
2013-07-21 01:51:00,68.1,63.6,29.91,North,1,0.0,0.0,86,0.00,,---,0.00,VWS V14.01,2013-07-21 06:51:00,
2013-07-21 01:56:00,68.2,63.4,29.90,North,1,0.0,0.0,85,0.00,,---,0.00,VWS V14.01,2013-07-21 06:56:00,
2013-07-21 02:01:00,68.2,63.4,29.91,North,1,0.0,0.0,85,0.00,,---,0.00,VWS V14.01,2013-07-21 07:01:00,
2013-07-21 02:06:00,68.2,63.4,29.91,North,1,0.0,0.0,85,0.00,,---,0.00,VWS V14.01,2013-07-21 07:06:00,
2013-07-21 02:11:00,68.1,63.3,29.91,North,1,0.0,0.0,85,0.00,,---,0.00,VWS V14.01,2013-07-21 07:11:00,
2013-07-21 02:16:00,68.0,63.2,29.91,North,1,0.0,0.0,85,0.00,,---,0.00,VWS V14.01,2013-07-21 07:16:00,
2013-07-21 02:21:00,67.9,63.4,29.92,NE,39,0.0,0.0,86,0.00,,---,0.00,VWS V14.01,2013-07-21 07:21:00,
2013-07-21 02:26:00,68.0,63.5,29.92,NE,39,0.0,0.0,86,0.00,,---,0.00,VWS V14.01,2013-07-21 07:26:00,
2013-07-21 02:31:00,68.0,63.5,29.93,NE,39,0.0,0.0,86,0.00,,---,0.00,VWS V14.01,2013-07-21 07:31:00,
2013-07-21 02:36:00,68.0,63.5,29.93,NE,39,0.0,0.0,86,0.00,,---,0.00,VWS V14.01,2013-07-21 07:36:00,
2013-07-21 02:41:00,67.9,63.4,29.92,NE,39,0.0,0.0,86,0.00,,---,0.00,VWS V14.01,2013-07-21 07:41:00,
2013-07-21 02:46:00,67.9,63.7,29.92,NE,39,0.0,0.0,86,0.00,,---,0.00,VWS V14.01,2013-07-21 07:46:00,
2013-07-21 02:51:00,67.9,63.7,29.92,NE,39,0.0,0.0,86,0.00,,---,0.00,VWS V14.01,2013-07-21 07:51:00,
2013-07-21 02:56:00,67.8,63.6,29.92,NE,39,0.0,0.0,86,0.00,,---,0.00,VWS V14.01,2013-07-21 07:56:00,
2013-07-21 03:01:00,67.7,63.5,29.92,NE,39,0.0,0.0,86,0.00,,---,0.00,VWS V14.01,2013-07-21 08:01:00,
2013-07-21 03:06:00,67.7,63.5,29.92,NE,39,0.0,0.0,86,0.00,,---,0.00,VWS V14.01,2013-07-21 08:06:00,
2013-07-21 03:11:00,67.5,63.3,29.92,NE,39,0.0,0.0,86,0.00,,---,0.00,VWS V14.01,2013-07-21 08:11:00,
2013-07-21 03:16:00,67.4,63.2,29.92,NE,39,0.0,0.0,86,0.00,,---,0.00,VWS V14.01,2013-07-21 08:16:00,
2013-07-21 03:21:00,67.3,63.1,29.92,NE,39,0.0,0.0,86,0.00,,---,0.00,VWS V14.01,2013-07-21 08:21:00,
2013-07-21 03:26:00,67.1,62.9,29.92,NE,39,0.0,0.0,86,0.00,,---,0.00,VWS V14.01,2013-07-21 08:26:00,
2013-07-21 03:31:00,67.0,62.8,29.92,NE,39,0.0,0.0,86,0.00,,---,0.00,VWS V14.01,2013-07-21 08:31:00,
2013-07-21 03:36:00,66.9,63.0,29.92,NE,39,0.0,0.0,87,0.00,,---,0.00,VWS V14.01,2013-07-21 08:36:00,
2013-07-21 03:41:00,66.9,63.0,29.92,NE,39,0.0,0.0,87,0.00,,---,0.00,VWS V14.01,2013-07-21 08:41:00,
2013-07-21 03:46:00,66.8,63.0,29.92,NE,39,0.0,0.0,87,0.00,,---,0.00,VWS V14.01,2013-07-21 08:46:00,
2013-07-21 03:51:00,66.6,62.8,29.92,NE,39,0.0,0.0,87,0.00,,---,0.00,VWS V14.01,2013-07-21 08:51:00,
2013-07-21 03:56:00,66.5,62.7,29.92,NE,39,0.0,0.0,87,0.00,,---,0.00,VWS V14.01,2013-07-21 08:56:00,
2013-07-21 04:00:00,66.4,62.6,29.91,NE,39,0.0,0.0,87,0.00,,---,0.00,VWS V14.01,2013-07-21 09:00:00,
2013-07-21 04:05:00,66.3,62.5,29.91,NE,39,0.0,0.0,87,0.00,,---,0.00,VWS V14.01,2013-07-21 09:05:00,
2013-07-21 04:10:00,66.1,62.3,29.91,NE,39,0.0,0.0,87,0.00,,---,0.00,VWS V14.01,2013-07-21 09:10:00,
2013-07-21 04:15:00,65.9,62.1,29.91,NE,39,0.0,0.0,87,0.00,,---,0.00,VWS V14.01,2013-07-21 09:15:00,
2013-07-21 04:20:00,65.8,62.3,29.91,NE,39,0.0,0.0,88,0.00,,---,0.00,VWS V14.01,2013-07-21 09:20:00,
2013-07-21 04:25:00,65.7,62.2,29.91,NE,39,0.0,0.0,88,0.00,,---,0.00,VWS V14.01,2013-07-21 09:25:00,
2013-07-21 04:30:00,65.6,62.1,29.91,NE,39,0.0,0.0,88,0.00,,---,0.00,VWS V14.01,2013-07-21 09:30:00,
2013-07-21 04:35:00,65.6,62.1,29.91,NE,39,0.0,0.0,88,0.00,,---,0.00,VWS V14.01,2013-07-21 09:35:00,
2013-07-21 04:40:00,65.5,62.0,29.91,NE,39,0.0,0.0,88,0.00,,---,0.00,VWS V14.01,2013-07-21 09:40:00,
2013-07-21 04:45:00,65.4,61.9,29.92,NE,39,0.0,0.0,88,0.00,,---,0.00,VWS V14.01,2013-07-21 09:45:00,
2013-07-21 04:50:00,65.4,61.9,29.92,NE,39,0.0,0.0,88,0.00,,---,0.00,VWS V14.01,2013-07-21 09:50:00,
2013-07-21 04:55:00,65.6,62.4,29.92,NE,39,0.0,0.0,89,0.00,,---,0.00,VWS V14.01,2013-07-21 09:55:00,
2013-07-21 05:00:00,65.5,62.0,29.92,NE,39,0.0,0.0,88,0.00,,---,0.00,VWS V14.01,2013-07-21 10:00:00,
2013-07-21 05:05:00,65.4,61.9,29.92,NE,39,0.0,0.0,88,0.00,,---,0.00,VWS V14.01,2013-07-21 10:05:00,
2013-07-21 05:10:00,65.4,62.2,29.92,NE,39,0.0,0.0,89,0.00,,---,0.00,VWS V14.01,2013-07-21 10:10:00,
2013-07-21 05:15:00,65.3,62.1,29.92,NE,39,0.0,0.0,89,0.00,,---,0.00,VWS V14.01,2013-07-21 10:15:00,
2013-07-21 05:20:00,65.2,62.0,29.92,NE,39,0.0,0.0,89,0.00,,---,0.00,VWS V14.01,2013-07-21 10:20:00,
2013-07-21 05:25:00,65.2,62.0,29.92,NE,39,0.0,0.0,89,0.00,,---,0.00,VWS V14.01,2013-07-21 10:25:00,
2013-07-21 05:30:00,65.1,61.9,29.92,NE,39,0.0,0.0,89,0.00,,---,0.00,VWS V14.01,2013-07-21 10:30:00,
2013-07-21 05:35:00,65.0,61.8,29.92,NE,39,0.0,0.0,89,0.00,,---,0.00,VWS V14.01,2013-07-21 10:35:00,
2013-07-21 05:40:00,64.9,61.7,29.92,NE,39,0.0,0.0,89,0.00,,---,0.00,VWS V14.01,2013-07-21 10:40:00,
2013-07-21 05:45:00,64.9,61.7,29.92,NE,39,0.0,0.0,89,0.00,,---,0.00,VWS V14.01,2013-07-21 10:45:00,
2013-07-21 05:50:00,64.8,61.6,29.92,NE,39,0.0,0.0,89,0.00,,---,0.00,VWS V14.01,2013-07-21 10:50:00,
2013-07-21 05:55:00,64.8,61.6,29.92,NE,41,0.0,0.0,89,0.00,,---,0.00,VWS V14.01,2013-07-21 10:55:00,
2013-07-21 06:00:00,64.9,61.7,29.92,NE,40,0.0,0.0,89,0.00,,---,0.00,VWS V14.01,2013-07-21 11:00:00,
2013-07-21 06:05:00,64.9,61.7,29.92,SE,124,0.0,0.0,89,0.00,,---,0.00,VWS V14.01,2013-07-21 11:05:00,
2013-07-21 06:10:00,65.0,61.8,29.92,SE,124,0.0,0.0,89,0.00,,---,0.00,VWS V14.01,2013-07-21 11:10:00,
2013-07-21 06:15:00,65.2,62.0,29.92,ESE,108,0.0,0.0,89,0.00,,---,0.00,VWS V14.01,2013-07-21 11:15:00,
2013-07-21 06:20:00,65.2,62.0,29.93,ESE,109,0.0,0.0,89,0.00,,---,0.00,VWS V14.01,2013-07-21 11:20:00,
2013-07-21 06:21:00,65.3,62.1,29.93,ESE,108,0.0,0.0,89,0.00,,---,0.00,VWS V14.01,2013-07-21 11:21:00,
2013-07-21 06:26:00,65.4,62.2,29.93,ESE,109,0.0,0.0,89,0.00,,---,0.00,VWS V14.01,2013-07-21 11:26:00,
2013-07-21 06:31:00,65.5,62.3,29.93,ESE,109,0.0,0.0,89,0.00,,---,0.00,VWS V14.01,2013-07-21 11:31:00,
2013-07-21 06:36:00,65.7,62.5,29.92,ESE,108,0.0,0.0,89,0.00,,---,0.00,VWS V14.01,2013-07-21 11:36:00,
2013-07-21 06:41:00,65.9,62.7,29.93,ESE,108,0.0,0.0,89,0.00,,---,0.00,VWS V14.01,2013-07-21 11:41:00,
2013-07-21 06:46:00,66.0,62.8,29.93,NNE,30,0.0,0.0,89,0.00,,---,0.00,VWS V14.01,2013-07-21 11:46:00,
2013-07-21 06:51:00,66.2,63.0,29.93,WNW,296,0.0,0.0,89,0.00,,---,0.00,VWS V14.01,2013-07-21 11:51:00,
2013-07-21 06:56:00,66.5,63.2,29.93,SE,129,1.8,1.8,89,0.00,,---,0.00,VWS V14.01,2013-07-21 11:56:00,
2013-07-21 07:01:00,66.9,63.7,29.93,NNE,26,0.0,0.0,89,0.00,,---,0.00,VWS V14.01,2013-07-21 12:01:00,
2013-07-21 07:06:00,67.1,63.8,29.93,WNW,301,3.6,5.4,89,0.00,,---,0.00,VWS V14.01,2013-07-21 12:06:00,
2013-07-21 07:11:00,67.2,63.6,29.93,NE,47,0.0,0.0,88,0.00,,---,0.00,VWS V14.01,2013-07-21 12:11:00,
2013-07-21 07:16:00,67.4,63.5,29.93,East,93,0.0,0.0,87,0.00,,---,0.00,VWS V14.01,2013-07-21 12:16:00,
2013-07-21 07:21:00,67.6,63.7,29.93,NW,313,0.0,0.0,87,0.00,,---,0.00,VWS V14.01,2013-07-21 12:21:00,
2013-07-21 07:26:00,67.8,63.6,29.93,ESE,109,1.8,1.8,86,0.00,,---,0.00,VWS V14.01,2013-07-21 12:26:00,
2013-07-21 07:31:00,68.0,63.8,29.93,ESE,108,0.0,0.0,86,0.00,,---,0.00,VWS V14.01,2013-07-21 12:31:00,
2013-07-21 07:36:00,68.1,63.6,29.93,ENE,74,0.0,0.0,86,0.00,,---,0.00,VWS V14.01,2013-07-21 12:36:00,
2013-07-21 07:41:00,68.4,64.2,29.93,NE,48,0.0,0.0,86,0.00,,---,0.00,VWS V14.01,2013-07-21 12:41:00,
2013-07-21 07:46:00,68.6,64.1,29.93,NE,41,0.0,0.0,86,0.00,,---,0.00,VWS V14.01,2013-07-21 12:46:00,
2013-07-21 07:51:00,68.9,64.4,29.93,ESE,117,0.0,0.0,86,0.00,,---,0.00,VWS V14.01,2013-07-21 12:51:00,
2013-07-21 07:56:00,69.1,64.3,29.93,NW,308,0.0,0.0,85,0.00,,---,0.00,VWS V14.01,2013-07-21 12:56:00,
2013-07-21 08:01:00,69.3,64.5,29.93,ESE,105,0.0,0.0,85,0.00,,---,0.00,VWS V14.01,2013-07-21 13:01:00,
2013-07-21 08:06:00,69.5,64.7,29.93,NE,56,0.0,0.0,85,0.00,,---,0.00,VWS V14.01,2013-07-21 13:06:00,
2013-07-21 08:11:00,69.7,64.9,29.93,ESE,110,0.0,0.0,85,0.00,,---,0.00,VWS V14.01,2013-07-21 13:11:00,
2013-07-21 08:16:00,69.9,65.1,29.94,NNE,12,0.0,0.0,85,0.00,,---,0.00,VWS V14.01,2013-07-21 13:16:00,
2013-07-21 08:21:00,70.0,64.8,29.94,NNE,18,0.0,0.0,84,0.00,,---,0.00,VWS V14.01,2013-07-21 13:21:00,
2013-07-21 08:25:00,70.3,65.5,29.94,East,100,0.0,0.0,85,0.00,,---,0.00,VWS V14.01,2013-07-21 13:25:00,
2013-07-21 08:30:00,70.7,65.8,29.94,ESE,114,0.0,0.0,85,0.00,,---,0.00,VWS V14.01,2013-07-21 13:30:00,
2013-07-21 08:35:00,71.1,65.9,29.94,ESE,121,0.0,0.0,84,0.00,,---,0.00,VWS V14.01,2013-07-21 13:35:00,
2013-07-21 08:40:00,71.4,65.9,29.94,SSE,156,0.0,0.0,83,0.00,,---,0.00,VWS V14.01,2013-07-21 13:40:00,
2013-07-21 08:45:00,71.4,65.9,29.94,SE,143,1.8,1.8,83,0.00,,---,0.00,VWS V14.01,2013-07-21 13:45:00,
2013-07-21 08:50:00,71.4,65.9,29.94,SE,139,0.0,0.0,83,0.00,,---,0.00,VWS V14.01,2013-07-21 13:50:00,
2013-07-21 08:55:00,71.6,66.1,29.94,ESE,121,0.0,3.6,83,0.00,,---,0.00,VWS V14.01,2013-07-21 13:55:00,
2013-07-21 09:00:00,71.9,66.4,29.93,ESE,107,0.0,7.2,83,0.00,,---,0.00,VWS V14.01,2013-07-21 14:00:00,
2013-07-21 09:05:00,72.3,66.8,29.93,North,354,0.0,5.4,83,0.00,,---,0.00,VWS V14.01,2013-07-21 14:05:00,
2013-07-21 09:10:00,72.9,67.0,29.93,ESE,122,3.6,9.0,82,0.00,,---,0.00,VWS V14.01,2013-07-21 14:10:00,
2013-07-21 09:15:00,73.3,67.1,29.94,ESE,114,0.0,7.2,81,0.00,,---,0.00,VWS V14.01,2013-07-21 14:15:00,
2013-07-21 09:20:00,73.8,67.2,29.94,SSW,208,1.8,7.2,80,0.00,,---,0.00,VWS V14.01,2013-07-21 14:20:00,
2013-07-21 09:25:00,74.6,67.7,29.94,SW,219,3.6,5.4,79,0.00,,---,0.00,VWS V14.01,2013-07-21 14:25:00,
2013-07-21 09:30:00,75.5,68.2,29.94,ESE,104,5.4,7.2,78,0.00,,---,0.00,VWS V14.01,2013-07-21 14:30:00,
2013-07-21 09:35:00,75.6,68.0,29.93,SE,135,0.0,9.0,77,0.00,,---,0.00,VWS V14.01,2013-07-21 14:35:00,
2013-07-21 09:40:00,76.3,68.6,29.93,SSW,211,0.0,3.6,77,0.00,,---,0.00,VWS V14.01,2013-07-21 14:40:00,
2013-07-21 09:45:00,77.2,69.2,29.93,South,169,5.4,5.4,76,0.00,,---,0.00,VWS V14.01,2013-07-21 14:45:00,
2013-07-21 09:50:00,77.7,68.9,29.93,East,81,1.8,7.2,74,0.00,,---,0.00,VWS V14.01,2013-07-21 14:50:00,
2013-07-21 09:55:00,78.0,68.8,29.93,NNE,25,1.8,5.4,73,0.00,,---,0.00,VWS V14.01,2013-07-21 14:55:00,
2013-07-21 10:00:00,78.0,68.8,29.93,NW,319,1.8,5.4,73,0.00,,---,0.00,VWS V14.01,2013-07-21 15:00:00,
2013-07-21 10:05:00,78.7,69.1,29.94,NE,39,1.8,5.4,73,0.00,,---,0.00,VWS V14.01,2013-07-21 15:05:00,
2013-07-21 10:10:00,79.3,69.0,29.93,ESE,120,1.8,7.2,71,0.00,,---,0.00,VWS V14.01,2013-07-21 15:10:00,
2013-07-21 10:15:00,79.6,69.2,29.93,ESE,117,0.0,3.6,71,0.00,,---,0.00,VWS V14.01,2013-07-21 15:15:00,
2013-07-21 10:20:00,80.1,69.7,29.94,West,260,5.4,7.2,71,0.00,,---,0.00,VWS V14.01,2013-07-21 15:20:00,
2013-07-21 10:25:00,80.6,69.4,29.93,WSW,242,7.2,7.2,69,0.00,,---,0.00,VWS V14.01,2013-07-21 15:25:00,
2013-07-21 10:30:00,81.2,69.6,29.93,SSW,201,0.0,3.6,68,0.00,,---,0.00,VWS V14.01,2013-07-21 15:30:00,
2013-07-21 10:35:00,81.5,69.5,29.93,ESE,105,0.0,7.2,67,0.00,,---,0.00,VWS V14.01,2013-07-21 15:35:00,
2013-07-21 10:40:00,81.4,69.4,29.93,ESE,109,1.8,5.4,67,0.00,,---,0.00,VWS V14.01,2013-07-21 15:40:00,
2013-07-21 10:45:00,81.1,69.5,29.93,East,94,0.0,9.0,68,0.00,,---,0.00,VWS V14.01,2013-07-21 15:45:00,
2013-07-21 10:50:00,81.2,69.6,29.93,ESE,109,0.0,7.2,68,0.00,,---,0.00,VWS V14.01,2013-07-21 15:50:00,
2013-07-21 10:55:00,81.5,69.1,29.93,ESE,121,3.6,7.2,66,0.00,,---,0.00,VWS V14.01,2013-07-21 15:55:00,
2013-07-21 11:00:00,81.6,69.6,29.93,East,94,3.6,7.2,67,0.00,,---,0.00,VWS V14.01,2013-07-21 16:00:00,
2013-07-21 11:05:00,81.8,69.3,29.93,SSE,148,0.0,7.2,66,0.00,,---,0.00,VWS V14.01,2013-07-21 16:05:00,
2013-07-21 11:10:00,81.8,69.8,29.92,East,90,0.0,7.2,67,0.00,,---,0.00,VWS V14.01,2013-07-21 16:10:00,
2013-07-21 11:15:00,82.2,68.9,29.92,ESE,107,0.0,5.4,64,0.00,,---,0.00,VWS V14.01,2013-07-21 16:15:00,
2013-07-21 11:20:00,82.6,69.3,29.92,SSW,205,0.0,9.0,64,0.00,,---,0.00,VWS V14.01,2013-07-21 16:20:00,
2013-07-21 11:25:00,83.5,69.7,29.92,ESE,105,3.6,7.2,63,0.00,,---,0.00,VWS V14.01,2013-07-21 16:25:00,
2013-07-21 11:30:00,83.8,69.6,29.92,SE,137,3.6,10.8,62,0.00,,---,0.00,VWS V14.01,2013-07-21 16:30:00,
2013-07-21 11:35:00,84.5,69.8,29.92,ESE,117,9.0,12.6,61,0.00,,---,0.00,VWS V14.01,2013-07-21 16:35:00,
2013-07-21 11:40:00,84.4,70.6,29.92,SSW,210,5.4,9.0,63,0.00,,---,0.00,VWS V14.01,2013-07-21 16:40:00,
2013-07-21 11:45:00,85.1,69.4,29.92,SSW,197,3.6,9.0,60,0.00,,---,0.00,VWS V14.01,2013-07-21 16:45:00,
2013-07-21 11:50:00,85.6,69.4,29.91,SE,145,1.8,10.8,59,0.00,,---,0.00,VWS V14.01,2013-07-21 16:50:00,
2013-07-21 11:55:00,85.9,69.7,29.91,East,85,1.8,7.2,59,0.00,,---,0.00,VWS V14.01,2013-07-21 16:55:00,
2013-07-21 12:00:00,86.1,69.0,29.92,SSE,152,0.0,7.2,57,0.00,,---,0.00,VWS V14.01,2013-07-21 17:00:00,
2013-07-21 12:05:00,86.6,68.9,29.91,ESE,107,3.6,5.4,56,0.00,,---,0.00,VWS V14.01,2013-07-21 17:05:00,
2013-07-21 12:10:00,86.8,69.1,29.91,SE,124,1.8,9.0,56,0.00,,---,0.00,VWS V14.01,2013-07-21 17:10:00,
2013-07-21 12:15:00,86.6,68.4,29.91,SE,128,7.2,9.0,55,0.00,,---,0.00,VWS V14.01,2013-07-21 17:15:00,
2013-07-21 12:20:00,85.7,68.6,29.91,ESE,117,0.0,10.8,57,0.00,,---,0.00,VWS V14.01,2013-07-21 17:20:00,
2013-07-21 12:25:00,86.0,67.9,29.91,NNE,28,5.4,10.8,55,0.00,,---,0.00,VWS V14.01,2013-07-21 17:25:00,
2013-07-21 12:30:00,85.7,68.1,29.91,SW,225,3.6,10.8,56,0.00,,---,0.00,VWS V14.01,2013-07-21 17:30:00,
2013-07-21 12:35:00,85.3,67.7,29.90,SSW,212,3.6,9.0,56,0.00,,---,0.00,VWS V14.01,2013-07-21 17:35:00,
2013-07-21 12:40:00,85.1,68.5,29.90,SSW,208,5.4,9.0,58,0.00,,---,0.00,VWS V14.01,2013-07-21 17:40:00,
2013-07-21 12:45:00,85.3,68.7,29.91,SW,216,7.2,9.0,58,0.00,,---,0.00,VWS V14.01,2013-07-21 17:45:00,
2013-07-21 12:50:00,85.1,67.6,29.90,SSW,203,3.6,12.6,56,0.00,,---,0.00,VWS V14.01,2013-07-21 17:50:00,
2013-07-21 12:55:00,84.7,66.2,29.90,SSW,197,7.2,12.6,54,0.00,,---,0.00,VWS V14.01,2013-07-21 17:55:00,
2013-07-21 13:00:00,84.7,67.2,29.90,SSW,208,14.4,14.4,56,0.00,,---,0.00,VWS V14.01,2013-07-21 18:00:00,
2013-07-21 13:05:00,84.4,67.8,29.90,SSE,162,1.8,14.4,58,0.00,,---,0.00,VWS V14.01,2013-07-21 18:05:00,
2013-07-21 13:10:00,84.4,67.4,29.90,SSW,205,7.2,9.0,57,0.00,,---,0.00,VWS V14.01,2013-07-21 18:10:00,
2013-07-21 13:15:00,84.5,67.0,29.90,South,183,5.4,9.0,56,0.00,,---,0.00,VWS V14.01,2013-07-21 18:15:00,
2013-07-21 13:20:00,84.2,67.7,29.90,East,98,5.4,9.0,58,0.00,,---,0.00,VWS V14.01,2013-07-21 18:20:00,
2013-07-21 13:25:00,83.8,67.3,29.89,WSW,240,0.0,9.0,58,0.00,,---,0.00,VWS V14.01,2013-07-21 18:25:00,
2013-07-21 13:30:00,83.8,68.2,29.89,SSW,208,0.0,9.0,60,0.00,,---,0.00,VWS V14.01,2013-07-21 18:30:00,
2013-07-21 13:35:00,83.5,67.5,29.89,SW,226,5.4,12.6,59,0.00,,---,0.00,VWS V14.01,2013-07-21 18:35:00,
2013-07-21 13:40:00,83.5,67.5,29.89,SSE,149,1.8,9.0,59,0.00,,---,0.00,VWS V14.01,2013-07-21 18:40:00,
2013-07-21 13:45:00,83.8,68.2,29.90,SW,219,5.4,10.8,60,0.00,,---,0.00,VWS V14.01,2013-07-21 18:45:00,
2013-07-21 13:50:00,84.2,67.7,29.89,SSW,192,10.8,12.6,58,0.00,,---,0.00,VWS V14.01,2013-07-21 18:50:00,
2013-07-21 13:55:00,84.1,67.1,29.90,SW,224,7.2,9.0,57,0.00,,---,0.00,VWS V14.01,2013-07-21 18:55:00,
2013-07-21 14:00:00,84.0,67.0,29.90,ENE,71,7.2,12.6,57,0.00,,---,0.00,VWS V14.01,2013-07-21 19:00:00,
2013-07-21 14:05:00,83.9,66.9,29.90,SSW,208,1.8,10.8,57,0.00,,---,0.00,VWS V14.01,2013-07-21 19:05:00,
2013-07-21 14:10:00,83.8,66.8,29.90,South,175,1.8,10.8,57,0.00,,---,0.00,VWS V14.01,2013-07-21 19:10:00,
2013-07-21 14:15:00,83.5,67.0,29.90,SSW,200,3.6,14.4,58,0.00,,---,0.00,VWS V14.01,2013-07-21 19:15:00,
2013-07-21 14:20:00,83.5,67.0,29.90,ESE,117,0.0,10.8,58,0.00,,---,0.00,VWS V14.01,2013-07-21 19:20:00,
2013-07-21 14:25:00,83.3,66.3,29.90,SE,131,3.6,7.2,57,0.00,,---,0.00,VWS V14.01,2013-07-21 19:25:00,
2013-07-21 14:30:00,83.2,65.8,29.90,SW,225,7.2,10.8,56,0.00,,---,0.00,VWS V14.01,2013-07-21 19:30:00,
2013-07-21 14:35:00,82.8,65.9,29.90,SW,215,3.6,7.2,57,0.00,,---,0.00,VWS V14.01,2013-07-21 19:35:00,
2013-07-21 14:40:00,82.7,66.3,29.90,SSW,200,7.2,9.0,58,0.00,,---,0.00,VWS V14.01,2013-07-21 19:40:00,
2013-07-21 14:45:00,82.6,66.2,29.90,SSW,212,0.0,7.2,58,0.00,,---,0.00,VWS V14.01,2013-07-21 19:45:00,
2013-07-21 14:50:00,82.8,66.8,29.90,South,183,3.6,5.4,59,0.00,,---,0.00,VWS V14.01,2013-07-21 19:50:00,
2013-07-21 14:55:00,82.8,67.7,29.90,SE,134,1.8,9.0,60,0.00,,---,0.00,VWS V14.01,2013-07-21 19:55:00,
2013-07-21 15:00:00,82.9,66.9,29.89,SE,143,3.6,12.6,59,0.00,,---,0.00,VWS V14.01,2013-07-21 20:00:00,
2013-07-21 15:05:00,82.9,66.9,29.90,SSW,201,1.8,12.6,59,0.00,,---,0.00,VWS V14.01,2013-07-21 20:05:00,
2013-07-21 15:10:00,82.9,66.4,29.89,SW,225,5.4,10.8,58,0.00,,---,0.00,VWS V14.01,2013-07-21 20:10:00,
2013-07-21 15:15:00,83.0,67.5,29.89,SSW,203,7.2,12.6,60,0.00,,---,0.00,VWS V14.01,2013-07-21 20:15:00,
2013-07-21 15:20:00,83.1,67.6,29.89,SSW,203,3.6,5.4,60,0.00,,---,0.00,VWS V14.01,2013-07-21 20:20:00,
2013-07-21 15:25:00,83.4,67.4,29.88,SSW,203,7.2,9.0,59,0.00,,---,0.00,VWS V14.01,2013-07-21 20:25:00,
2013-07-21 15:30:00,84.1,68.0,29.88,ESE,114,5.4,5.4,59,0.00,,---,0.00,VWS V14.01,2013-07-21 20:30:00,
2013-07-21 15:35:00,84.4,66.9,29.87,SSE,154,3.6,9.0,56,0.00,,---,0.00,VWS V14.01,2013-07-21 20:35:00,
2013-07-21 15:40:00,84.0,67.0,29.87,SE,137,1.8,9.0,57,0.00,,---,0.00,VWS V14.01,2013-07-21 20:40:00,
2013-07-21 15:45:00,83.8,66.8,29.87,SSW,193,1.8,7.2,57,0.00,,---,0.00,VWS V14.01,2013-07-21 20:45:00,
2013-07-21 15:50:00,83.5,65.6,29.86,South,181,9.0,12.6,55,0.00,,---,0.00,VWS V14.01,2013-07-21 20:50:00,
2013-07-21 15:55:00,83.1,66.2,29.86,SW,225,10.8,10.8,57,0.00,,---,0.00,VWS V14.01,2013-07-21 20:55:00,
2013-07-21 16:00:00,83.0,67.5,29.86,SE,131,1.8,9.0,60,0.00,,---,0.00,VWS V14.01,2013-07-21 21:00:00,
2013-07-21 16:05:00,83.1,66.6,29.85,SSE,156,0.0,12.6,58,0.00,,---,0.00,VWS V14.01,2013-07-21 21:05:00,
2013-07-21 16:10:00,83.1,66.6,29.85,SW,226,3.6,7.2,58,0.00,,---,0.00,VWS V14.01,2013-07-21 21:10:00,
2013-07-21 16:15:00,82.9,66.4,29.85,SSW,198,1.8,12.6,58,0.00,,---,0.00,VWS V14.01,2013-07-21 21:15:00,
2013-07-21 16:20:00,82.7,66.7,29.85,South,190,5.4,9.0,59,0.00,,---,0.00,VWS V14.01,2013-07-21 21:20:00,
2013-07-21 16:25:00,82.5,67.0,29.85,SSE,165,1.8,7.2,60,0.00,,---,0.00,VWS V14.01,2013-07-21 21:25:00,
2013-07-21 16:30:00,82.5,67.4,29.84,SW,219,5.4,5.4,60,0.00,,---,0.00,VWS V14.01,2013-07-21 21:30:00,
2013-07-21 16:35:00,82.4,66.9,29.85,SW,215,3.6,5.4,60,0.00,,---,0.00,VWS V14.01,2013-07-21 21:35:00,
2013-07-21 16:40:00,82.2,67.2,29.85,SW,236,1.8,9.0,60,0.00,,---,0.00,VWS V14.01,2013-07-21 21:40:00,
2013-07-21 16:45:00,82.1,67.1,29.85,ESE,121,1.8,10.8,60,0.00,,---,0.00,VWS V14.01,2013-07-21 21:45:00,
2013-07-21 16:50:00,82.1,67.1,29.85,SSE,150,1.8,12.6,60,0.00,,---,0.00,VWS V14.01,2013-07-21 21:50:00,
2013-07-21 16:55:00,82.0,67.0,29.85,SSE,167,3.6,10.8,60,0.00,,---,0.00,VWS V14.01,2013-07-21 21:55:00,
2013-07-21 17:00:00,82.2,67.6,29.85,SW,215,1.8,7.2,61,0.00,,---,0.00,VWS V14.01,2013-07-21 22:00:00,
2013-07-21 17:05:00,82.4,67.8,29.84,WSW,238,3.6,5.4,61,0.00,,---,0.00,VWS V14.01,2013-07-21 22:05:00,
2013-07-21 17:10:00,82.4,67.8,29.84,SSW,208,5.4,16.2,61,0.00,,---,0.00,VWS V14.01,2013-07-21 22:10:00,
2013-07-21 17:15:00,82.0,67.8,29.84,West,266,1.8,12.6,62,0.00,,---,0.00,VWS V14.01,2013-07-21 22:15:00,
2013-07-21 17:20:00,82.1,68.4,29.84,SW,232,1.8,10.8,63,0.00,,---,0.00,VWS V14.01,2013-07-21 22:20:00,
2013-07-21 17:25:00,81.9,67.8,29.84,WSW,243,1.8,12.6,62,0.00,,---,0.00,VWS V14.01,2013-07-21 22:25:00,
2013-07-21 17:30:00,81.7,68.4,29.84,West,271,1.8,9.0,64,0.00,,---,0.00,VWS V14.01,2013-07-21 22:30:00,
2013-07-21 17:35:00,81.5,68.7,29.84,SSW,200,5.4,12.6,65,0.00,,---,0.00,VWS V14.01,2013-07-21 22:35:00,
2013-07-21 17:40:00,81.3,68.9,29.84,South,173,1.8,9.0,66,0.00,,---,0.00,VWS V14.01,2013-07-21 22:40:00,
2013-07-21 17:45:00,81.5,69.1,29.84,West,263,1.8,5.4,66,0.00,,---,0.00,VWS V14.01,2013-07-21 22:45:00,
2013-07-21 17:50:00,81.5,69.1,29.83,SW,221,1.8,3.6,66,0.00,,---,0.00,VWS V14.01,2013-07-21 22:50:00,
2013-07-21 17:55:00,81.4,69.4,29.83,ESE,121,0.0,5.4,67,0.00,,---,0.00,VWS V14.01,2013-07-21 22:55:00,
2013-07-21 18:00:00,81.1,69.1,29.83,ESE,105,3.6,5.4,67,0.00,,---,0.00,VWS V14.01,2013-07-21 23:00:00,
2013-07-21 18:05:00,80.9,68.9,29.84,SSW,200,0.0,5.4,67,0.00,,---,0.00,VWS V14.01,2013-07-21 23:05:00,
2013-07-21 18:10:00,80.9,68.9,29.84,SSW,205,0.0,7.2,67,0.00,,---,0.00,VWS V14.01,2013-07-21 23:10:00,
2013-07-21 18:15:00,80.8,68.8,29.84,SSW,200,3.6,7.2,67,0.00,,---,0.00,VWS V14.01,2013-07-21 23:15:00,
2013-07-21 18:20:00,80.5,68.9,29.84,South,187,1.8,7.2,68,0.00,,---,0.00,VWS V14.01,2013-07-21 23:20:00,
2013-07-21 18:25:00,80.4,69.2,29.84,SSW,203,0.0,5.4,69,0.00,,---,0.00,VWS V14.01,2013-07-21 23:25:00,
2013-07-21 18:30:00,80.2,69.0,29.84,SE,124,0.0,0.0,69,0.00,,---,0.00,VWS V14.01,2013-07-21 23:30:00,
2013-07-21 18:35:00,80.1,69.3,29.84,SW,218,0.0,3.6,70,0.00,,---,0.00,VWS V14.01,2013-07-21 23:35:00,
2013-07-21 18:40:00,80.0,69.2,29.84,East,99,0.0,3.6,70,0.00,,---,0.00,VWS V14.01,2013-07-21 23:40:00,
2013-07-21 18:45:00,79.9,69.1,29.85,SW,215,3.6,5.4,70,0.00,,---,0.00,VWS V14.01,2013-07-21 23:45:00,
2013-07-21 18:50:00,79.8,69.1,29.85,SW,221,1.8,5.4,70,0.00,,---,0.00,VWS V14.01,2013-07-21 23:50:00,
2013-07-21 18:55:00,79.7,68.9,29.85,SW,215,0.0,5.4,70,0.00,,---,0.00,VWS V14.01,2013-07-21 23:55:00,
2013-07-21 19:00:00,79.7,68.9,29.85,SSW,193,3.6,3.6,70,0.00,,---,0.00,VWS V14.01,2013-07-22 00:00:00,
2013-07-21 19:05:00,79.6,69.2,29.85,SE,124,1.8,5.4,71,0.00,,---,0.00,VWS V14.01,2013-07-22 00:05:00,
2013-07-21 19:10:00,79.3,69.0,29.85,ESE,121,0.0,3.6,71,0.00,,---,0.00,VWS V14.01,2013-07-22 00:10:00,
2013-07-21 19:15:00,79.1,69.2,29.85,ESE,105,0.0,3.6,72,0.00,,---,0.00,VWS V14.01,2013-07-22 00:15:00,
2013-07-21 19:20:00,78.9,69.0,29.85,ESE,109,0.0,0.0,72,0.00,,---,0.00,VWS V14.01,2013-07-22 00:20:00,
2013-07-21 19:25:00,78.8,68.9,29.85,ESE,108,0.0,0.0,72,0.00,,---,0.00,VWS V14.01,2013-07-22 00:25:00,
2013-07-21 19:30:00,78.7,69.1,29.85,ESE,109,0.0,0.0,73,0.00,,---,0.00,VWS V14.01,2013-07-22 00:30:00,
2013-07-21 19:35:00,78.6,69.0,29.85,SE,129,0.0,0.0,73,0.00,,---,0.00,VWS V14.01,2013-07-22 00:35:00,
2013-07-21 19:40:00,78.5,69.3,29.85,SE,124,0.0,0.0,73,0.00,,---,0.00,VWS V14.01,2013-07-22 00:40:00,
2013-07-21 19:45:00,78.4,69.2,29.86,SE,124,0.0,0.0,73,0.00,,---,0.00,VWS V14.01,2013-07-22 00:45:00,
2013-07-21 19:50:00,78.3,69.5,29.86,SE,124,0.0,0.0,74,0.00,,---,0.00,VWS V14.01,2013-07-22 00:50:00,
2013-07-21 19:55:00,78.2,69.4,29.86,SE,124,0.0,0.0,74,0.00,,---,0.00,VWS V14.01,2013-07-22 00:55:00,
2013-07-21 20:00:00,78.0,69.6,29.86,SE,124,0.0,0.0,75,0.00,,---,0.00,VWS V14.01,2013-07-22 01:00:00,
2013-07-21 20:05:00,77.9,69.5,29.85,SE,124,0.0,0.0,75,0.00,,---,0.00,VWS V14.01,2013-07-22 01:05:00,
2013-07-21 20:10:00,77.8,69.4,29.85,SE,124,0.0,0.0,75,0.00,,---,0.00,VWS V14.01,2013-07-22 01:10:00,
2013-07-21 20:15:00,77.7,69.3,29.85,ESE,118,0.0,0.0,75,0.00,,---,0.00,VWS V14.01,2013-07-22 01:15:00,
2013-07-21 20:20:00,77.6,69.5,29.85,ESE,121,0.0,0.0,76,0.00,,---,0.00,VWS V14.01,2013-07-22 01:20:00,
2013-07-21 20:25:00,77.4,69.3,29.85,ESE,121,0.0,1.8,76,0.00,,---,0.00,VWS V14.01,2013-07-22 01:25:00,
2013-07-21 20:30:00,77.3,69.6,29.85,ESE,121,0.0,0.0,77,0.00,,---,0.00,VWS V14.01,2013-07-22 01:30:00,
2013-07-21 20:35:00,77.1,69.4,29.85,SE,126,0.0,0.0,77,0.00,,---,0.00,VWS V14.01,2013-07-22 01:35:00,
2013-07-21 20:40:00,77.0,69.3,29.85,SE,136,0.0,0.0,77,0.00,,---,0.00,VWS V14.01,2013-07-22 01:40:00,
2013-07-21 20:45:00,76.8,69.5,29.85,ESE,115,0.0,0.0,78,0.00,,---,0.00,VWS V14.01,2013-07-22 01:45:00,
2013-07-21 20:50:00,76.6,69.3,29.85,ESE,114,0.0,0.0,78,0.00,,---,0.00,VWS V14.01,2013-07-22 01:50:00,
2013-07-21 20:55:00,76.4,69.1,29.85,ESE,114,0.0,0.0,78,0.00,,---,0.00,VWS V14.01,2013-07-22 01:55:00,
2013-07-21 21:00:00,76.3,69.3,29.85,ESE,115,0.0,0.0,79,0.00,,---,0.00,VWS V14.01,2013-07-22 02:00:00,
2013-07-21 21:05:00,76.2,69.2,29.85,ESE,114,0.0,0.0,79,0.00,,---,0.00,VWS V14.01,2013-07-22 02:05:00,
2013-07-21 21:10:00,76.1,69.1,29.85,ESE,114,0.0,0.0,79,0.00,,---,0.00,VWS V14.01,2013-07-22 02:10:00,
2013-07-21 21:15:00,76.0,69.0,29.85,SE,124,0.0,0.0,79,0.00,,---,0.00,VWS V14.01,2013-07-22 02:15:00,
2013-07-21 21:20:00,76.0,69.0,29.85,SE,124,0.0,0.0,79,0.00,,---,0.00,VWS V14.01,2013-07-22 02:20:00,
2013-07-21 21:25:00,75.9,69.3,29.85,SE,124,0.0,0.0,80,0.00,,---,0.00,VWS V14.01,2013-07-22 02:25:00,
2013-07-21 21:30:00,75.8,69.2,29.85,SE,124,0.0,0.0,80,0.00,,---,0.00,VWS V14.01,2013-07-22 02:30:00,
2013-07-21 21:35:00,75.7,69.1,29.85,SE,124,0.0,0.0,80,0.00,,---,0.00,VWS V14.01,2013-07-22 02:35:00,
2013-07-21 21:40:00,75.6,69.0,29.86,SE,124,0.0,0.0,80,0.00,,---,0.00,VWS V14.01,2013-07-22 02:40:00,
2013-07-21 21:45:00,75.4,69.1,29.86,SE,124,0.0,0.0,81,0.00,,---,0.00,VWS V14.01,2013-07-22 02:45:00,
2013-07-21 21:50:00,75.2,68.9,29.86,SE,124,0.0,0.0,81,0.00,,---,0.00,VWS V14.01,2013-07-22 02:50:00,
2013-07-21 21:55:00,75.1,68.8,29.86,NNW,330,1.8,1.8,81,0.00,,---,0.00,VWS V14.01,2013-07-22 02:55:00,
2013-07-21 22:00:00,74.6,67.7,29.86,NNW,328,5.4,5.4,79,0.00,,---,0.00,VWS V14.01,2013-07-22 03:00:00,
2013-07-21 22:05:00,74.1,66.8,29.87,ESE,112,0.0,3.6,78,0.00,,---,0.00,VWS V14.01,2013-07-22 03:05:00,
2013-07-21 22:10:00,73.8,66.2,29.87,NNE,18,1.8,5.4,77,0.00,,---,0.00,VWS V14.01,2013-07-22 03:10:00,
2013-07-21 22:15:00,73.5,65.9,29.87,NNW,347,0.0,1.8,77,0.00,,---,0.00,VWS V14.01,2013-07-22 03:15:00,
2013-07-21 22:20:00,73.2,65.6,29.87,NNW,342,3.6,5.4,77,0.00,,---,0.00,VWS V14.01,2013-07-22 03:20:00,
2013-07-21 22:25:00,72.9,65.3,29.87,North,351,0.0,5.4,77,0.00,,---,0.00,VWS V14.01,2013-07-22 03:25:00,
2013-07-21 22:30:00,72.7,64.8,29.88,SW,214,1.8,9.0,76,0.00,,---,0.00,VWS V14.01,2013-07-22 03:30:00,
2013-07-21 22:35:00,72.6,64.7,29.87,SE,124,0.0,3.6,76,0.00,,---,0.00,VWS V14.01,2013-07-22 03:35:00,
2013-07-21 22:40:00,72.6,64.4,29.87,East,99,0.0,5.4,75,0.00,,---,0.00,VWS V14.01,2013-07-22 03:40:00,
2013-07-21 22:45:00,72.5,63.9,29.86,NNW,339,1.8,5.4,74,0.00,,---,0.00,VWS V14.01,2013-07-22 03:45:00,
2013-07-21 22:50:00,72.4,63.8,29.87,NNW,339,0.0,3.6,74,0.00,,---,0.00,VWS V14.01,2013-07-22 03:50:00,
2013-07-21 22:55:00,72.1,63.5,29.87,NNW,328,0.0,3.6,74,0.00,,---,0.00,VWS V14.01,2013-07-22 03:55:00,
2013-07-21 23:00:00,71.7,63.5,29.86,NNW,343,0.0,5.4,75,0.00,,---,0.00,VWS V14.01,2013-07-22 04:00:00,
2013-07-21 23:01:00,71.7,63.5,29.86,NNW,343,0.0,0.0,75,0.00,,---,0.00,VWS V14.01,2013-07-22 04:01:00,
2013-07-21 23:06:00,71.4,63.2,29.87,NNW,342,1.8,1.8,75,0.00,,---,0.00,VWS V14.01,2013-07-22 04:06:00,
2013-07-21 23:11:00,71.0,63.2,29.87,NW,314,0.0,0.0,76,0.00,,---,0.00,VWS V14.01,2013-07-22 04:11:00,
2013-07-21 23:16:00,70.8,63.0,29.87,NE,44,0.0,0.0,76,0.00,,---,0.00,VWS V14.01,2013-07-22 04:16:00,
2013-07-21 23:21:00,70.5,63.0,29.87,WNW,291,0.0,1.8,77,0.00,,---,0.00,VWS V14.01,2013-07-22 04:21:00,
2013-07-21 23:26:00,70.3,62.8,29.87,NW,319,0.0,0.0,77,0.00,,---,0.00,VWS V14.01,2013-07-22 04:26:00,
2013-07-21 23:31:00,70.1,62.6,29.88,SE,134,0.0,0.0,77,0.00,,---,0.00,VWS V14.01,2013-07-22 04:31:00,
2013-07-21 23:36:00,69.9,62.8,29.87,East,97,0.0,0.0,78,0.00,,---,0.00,VWS V14.01,2013-07-22 04:36:00,
2013-07-21 23:41:00,69.8,62.7,29.87,NW,326,0.0,0.0,78,0.00,,---,0.00,VWS V14.01,2013-07-22 04:41:00,
2013-07-21 23:46:00,69.7,62.9,29.87,SSE,163,0.0,0.0,79,0.00,,---,0.00,VWS V14.01,2013-07-22 04:46:00,
2013-07-21 23:51:00,69.8,63.0,29.88,ESE,119,0.0,0.0,79,0.00,,---,0.00,VWS V14.01,2013-07-22 04:51:00,
2013-07-21 23:56:00,69.8,63.0,29.88,WNW,287,1.8,1.8,79,0.00,,---,0.00,VWS V14.01,2013-07-22 04:56:00,